Location: Pasadena, ca
(34.1243°N, 118.1037°W)
Time: 20:22:15
(UTC-08:00)

OTV 5 (USA 277) - Pass Details

Date: 16 October 2017
Orbit: 404 x 417 km, 43.0° (Epoch: 07 September)

Event Time Altitude Azimuth Distance (km) Brightness Sun altitude
Rises 19:35:07 0° 299° (WNW) 2,354 ? -17.0°
Reaches altitude 10° 19:37:41 10° 319° (NW) 1,491 ? -17.5°
Maximum altitude 19:40:07 18° 5° (N) 1,089 ? -18.1°
Enters shadow 19:40:31 18° 15° (NNE) 1,102 ? -18.1°
